User: anonymous   Login
Location: Unspecified
(50.1700°N, 6.8600°E)
Time: 09:57:34
(UTC+00:00)
Language:

Iridium 2 - Orbit

View from above orbital plane
View from above orbital plane
View from above satellite
View from above satellite

Ground track
Ground track

The orbit data is extracted from the following two-line orbital elements,

1 25527U 98066A   19079.76188736  .00001051  00000-0  49959-4 0  9999
2 25527  85.5336  13.1041 0006620 244.2130 115.8428 15.17907060115151
Epoch (UTC): 20 March 2019 18:17:07
Eccentricity: 0.0006620
inclination: 85.5336°
perigee height: 507 km
apogee height: 517 km
right ascension of ascending node: 13.1041°
argument of perigee: 244.2130°
revolutions per day: 15.17907060
mean anomaly at epoch: 115.8428°
orbit number at epoch: 11515

The dashed part of the orbit path shows where the satellite is in the earth's shadow,  

DLR